Weather in Pronosnoye

Russia / Perm Krai     57°29′05″N   57°34′32″E
temp.,
°C
wind,
m/s
gust,
m/s
humid.,
%
clouds,
%
prec.,
mm/h
press.,
hPa
HPBL,
m
26 february, fri
fri2623:00−25s22950 0.0 102920
02:00−27sse22960 0.0 102819
05:00−27sse22946 0.0 102819
08:00−27sse239678 0.0 102725
11:00−22sse359076 0.0 1026233
14:00−17s35820 0.0 1025427
17:00−16sse36862 0.0 1024378
20:00−20sse348836 0.0 102267
27 february, sat
sat2723:00−21se468933 0.0 102188
02:00−21se479335 0.0 1018103
05:00−21ese479122 0.0 1016110
08:00−22ese498879 0.0 1013187
11:00−18ese598889 0.0 1011312
14:00−14ese61186100 0.0 1009538
17:00−14e61092100 0.3 1009666
20:00−18e71291100 0.3 1009550
28 february, sun
sun2823:00−18e5119099 0.4 1009497
02:00−18e5119199 0.1 1008505
05:00−17ene51193100 0.3 1009503
08:00−18ene51194100 0.4 1008514
11:00−17ene61093100 0.7 1009503
14:00−15ene6991100 0.3 1009570
17:00−15ene5991100 0.5 1010581
20:00−17ene4109297 0.1 1012459
1 march, mon
mon123:00−20ne379193 0.2 1015171
02:00−23ne349376 0.0 101665
05:00−25ne339341 0.0 101834
08:00−26nne23940 0.0 101921
11:00−21ne23890 0.0 1020246
14:00−16nnw238357 0.0 1019472
17:00−15wnw238979 0.0 1019246
20:00−20wsw129633 0.0 101920
2 march, tue
tue223:00−21ssw229517 0.0 101820
02:00−23ssw23960 0.0 101623
05:00−22s359839 0.0 101497
08:00−20s41097100 0.0 1011299
11:00−17ssw51192100 0.1 1009493
14:00−14ssw61194100 1.0 1007574
17:00−13ssw61094100 1.9 1006615
20:00−15ssw5995100 0.6 1005505